This demonstration page uses our WeatherBlox Daily Observations layout. Learn more.

Left ArrowRight Arrow

Hourly Observations for March 17, 2018

Temp ( °F °C ) Dew Point ( °F °C ) Humidity (%) Winds ( mph kmh ) Pressure ( in mb ) Visibility ( mi km ) Precip ( " mm )
12:59 am 00:59 Clear 41 5 20 -6.7 43 43 N 12 19 30.09 1019 10 16 0.00 0.00
1:59 am 01:59 Clear 37 2.8 22 -5.6 54 54 Calm 30.08 1019 10 16 0.00 0.00
2:59 am 02:59 Clear 33 0.6 23 -5 66 66 VRB 3 6 30.08 1019 10 16 0.00 0.00
3:59 am 03:59 Clear 32 0 24 -4.4 73 73 Calm 30.05 1018 10 16 0.00 0.00
4:59 am 04:59 Clear 30 -1.1 23 -5 75 75 SSW 3 6 30.05 1018 10 16 0.00 0.00
5:59 am 05:59 Clear 29 -1.7 23 -5 78 78 SW 6 9 30.08 1019 10 16 0.00 0.00
6:59 am 06:59 Mostly Clear 30 -1.1 24 -4.4 79 79 SSW 5 7 30.08 1019 10 16 0.00 0.00
7:59 am 07:59 Partly Cloudy 33 0.6 25 -3.9 72 72 SSW 3 6 30.08 1019 10 16 0.00 0.00
8:59 am 08:59 Mostly Cloudy 41 5 26 -3.3 55 55 S 7 11 30.06 1018 10 16 0.00 0.00
9:59 am 09:59 Mostly Cloudy 45 7.2 22 -5.6 40 40 S 7 11 30.05 1018 10 16 0.00 0.00
10:59 am 10:59 Mostly Cloudy 47 8.3 21 -6.1 36 36 VRB 3 6 30.01 1016 10 16 0.00 0.00
11:59 am 11:59 Mostly Cloudy 51 10.6 20 -6.7 29 29 S 5 7 29.97 1015 10 16 0.00 0.00
12:59 pm 12:59 Cloudy 52 11.1 25 -3.9 35 35 SSW 7 11 29.95 1014 10 16 0.00 0.00
1:59 pm 13:59 Cloudy 50 10 28 -2.2 43 43 NE 8 13 29.91 1013 10 16 0.00 0.00
2:59 pm 14:59 Cloudy 53 11.7 29 -1.7 40 40 VRB 7 11 29.83 1010 10 16 0.00 0.00
3:59 pm 15:59 Cloudy 52 11.1 32 0 47 47 VRB 7 11 29.83 1010 10 16 0.00 0.00
4:59 pm 16:59 Cloudy 48 8.9 32 0 54 54 ENE 8 13 29.83 1010 10 16 0.00 0.00
5:59 pm 17:59 Mostly Cloudy 47 8.3 33 0.6 59 59 ENE 10 17 29.83 1010 10 16 0.00 0.00
6:59 pm 18:59 Mostly Sunny 44 6.7 32 0 63 63 E 7 11 29.84 1011 10 16 0.00 0.00
7:59 pm 19:59 Clear 42 5.6 32 0 68 68 ENE 5 7 29.83 1010 10 16 0.00 0.00
8:59 pm 20:59 Clear 42 5.6 33 0.6 71 71 ENE 3 6 29.84 1011 10 16 0.00 0.00
9:59 pm 21:59 Clear 40 4.4 33 0.6 77 77 E 3 6 29.83 1010 10 16 0.00 0.00
10:59 pm 22:59 Mostly Cloudy with Light Rain 41 5 34 1.1 76 76 E 5 7 29.84 1011 10 16 0.00 0.03
11:59 pm 23:59 Mostly Cloudy with Light Rain 42 5.6 35 1.7 76 76 Calm 29.87 1011 10 16 0.00 0.03

Powered by AerisWeather